DELTA 1 DEB, 21352

Orbit data source: Space-Track

DELTA 1 DEB, 21352 is space debris in SSO originally from a launch on Thu, 12 Jun 1975 UTC launched from the Air Force Western Test Range (AFWTR). Debris objects in space refer to the collection of defunct objects orbiting the Earth. Examples of debris include non-operational satellites, rocket bodies, and fragments generated from explosions, collisions, or faulty payload assembly.

Loading next visibility...
Identifier
21352, 1975-052BW
Orbit
SSO
Country
Flag of USUS
Related business
Manufacturer
Unknown
Mission
Spacecraft
Bus & Motor
Unknown
Mass
Unknown
Launch date (UTC)
1975-06-12 (50 years ago)
Launch vehicle
Unknown
Launch site
Air Force Western Test Range (AFWTR)
Object type
Payload
Rocket body
Debris
Shape & HBR
Unknown shape, 0.1 m
Radar Cross Section
Small (<0.1 m²)

Expand to show TLE details & history
Last TLE update: 1 day ago

TLE from 1 day ago
0 DELTA 1 DEB
1 21352U 75052BW  25287.67774778  .00000612  00000-0  13435-2 0  9996
2 21352  99.5335 356.7896 0286010  69.3619  80.3485 13.18128887641730
Epoch: 2025-10-14T16:15Z
TLE epoch observation values (Epoch: 2025-10-14T16:15:57.408Z)
Latitude
26.6737°
Longitude
-85.8472°
Altitude
1,164.74 km
Speed
7.288 km/s
True Right ascension
12h 06m 25s
True Declination
26° 32' 36"
Sunlit
Object was in daylight at epoch
Visualization orbit readout
Latitude
Unknown
Longitude
Unknown
Altitude
Unknown
Speed
Unknown
Apparent Right ascension
Unknown
Apparent Declination
Unknown
Sunlit
N/A
Visualization observer readout
Local Sidereal Time
11:55:47
Azimuth
Unknown
Elevation
Unknown
Doppler factor
Unknown
Orbital elements
Apogee altitude
1,405.642 km
Perigee altitude
972.774 km
Semi-major axis
7,567.345 km
Eccentricity
0.0286
Inclination
99.5335°
RAAN
356.7896°
Arg. of periapsis
69.3619°
True anomaly
83.59728°
Mean anomaly
80.3485°
Eccentric anomaly
81.97115°
Mean motion
3.29707 °/min
Orbital period
109.19 mins
BSTAR
0.0013435
Loading maneuver chart data...
Computing Atmospheric mass density...

Documentation

Showing up to 5 results
|